Location: Unspecified
(0.0000°N, 0.0000°E)
Time: 12:34:59
(UTC+00:00)

USA 125 - Pass Details

Date: 16 June 2023
Orbit: 363 x 39930 km, 64.0° (Epoch: 09 October)

Event Time Altitude Azimuth Distance (km) Brightness Sun altitude
Rises 12:29:10 0° 90° (E) 28,470 ? 65.6°
Reaches altitude 10° 13:20:30 10° 79° (E) 34,342 ? 59.7°
Maximum altitude 17:30:09 40° 28° (NNE) 41,237 ? 7.0°
Drops below altitude 10° 21:13:22 10° 10° (N) 22,437 ? -43.1°
Sets 21:38:21 0° 19° (NNE) 18,183 ? -48.3°
